[[{"header":{"parameterUnit":"m.s-1","parameterCategory":2,"la1":30.2991,"la2":30.254,"lo1":-89.0895,"lo2":-89.0444,"dy":0.0017,"dx":0.0017,"nx":28,"ny":28,"refTime":"2025-06-15T09:00:00:Z","depth":"0","parameterNumber":2,"parameterNumberName":"U-component_of_CURRENTS"},"data":[0,0,0,0,0,0,0,0,0,0,0,0,0,0,0,0,0,0,0,0,0,0,0,0,0,0,0,0,0,0,0,0,0,0,0,0,0,0,0,0,0,0,0,0,0,0,0,0,0,0,0,0,0,0,0,0,0,0,-0.1925,-0.1925,0,-0.194,-0.194,-0.194,-0.1893,-0.1892,-0.1891,-0.189,-0.1813,-0.1813,-0.1812,0,0,0,0,0,0,0,0,0,0,0,0,0,-0.1941,-0.194,-0.1925,-0.1925,-0.1925,-0.194,-0.194,-0.194,-0.1894,-0.1892,-0.1891,-0.1889,-0.1814,-0.1813,-0.1812,0,0,0,0,0,0,0,0,0,0,0,0,0,-0.1941,-0.194,-0.1924,-0.1905,-0.1904,-0.194,-0.194,-0.194,-0.1894,-0.1892,-0.189,-0.1888,-0.1814,-0.1813,-0.1812,-0.1842,0,0,-0.1808,-0.1807,0,0,0,0,0,0,0,0,-0.1941,-0.194,-0.1908,-0.1907,-0.1905,-0.1915,-0.1918,-0.1903,-0.1894,-0.1896,-0.189,-0.1887,-0.1841,-0.1838,-0.1844,-0.1838,-0.1835,-0.1808,-0.1807,-0.1806,-0.1806,0,0,0,0,0,0,0,-0.1941,-0.194,-0.1929,-0.1908,-0.1907,-0.1926,-0.1922,-0.1916,-0.1876,-0.1895,-0.1893,-0.1898,-0.1839,-0.1845,-0.1841,-0.1834,-0.1808,-0.1806,-0.1806,-0.1805,-0.1894,-0.1897,0,0,0,0,0,0,-0.194,-0.1939,-0.1928,-0.1929,-0.1921,-0.1927,-0.1923,-0.1912,-0.1878,-0.1872,-0.19,-0.1896,-0.1848,-0.1843,-0.1838,-0.189,-0.1806,-0.1805,-0.1804,-0.1891,-0.1894,-0.1898,0,0,0,0,0,0,-0.194,-0.1938,-0.1928,-0.1937,-0.1937,-0.1928,-0.1916,-0.1913,-0.1909,-0.1882,-0.1874,-0.1897,-0.1846,-0.184,-0.1855,-0.1885,-0.1804,-0.1803,-0.1887,-0.1892,-0.1896,-0.1981,0,0,0,0,0,0,-0.194,-0.1938,-0.193,-0.1937,-0.1937,-0.1954,-0.1918,-0.1915,-0.1917,-0.1912,-0.1878,-0.187,-0.1844,-0.1857,-0.1853,-0.1882,-0.1802,-0.1883,-0.1889,-0.1895,-0.1974,-0.1988,-0.2,0,0,0,0,0,-0.194,-0.1939,-0.1929,-0.1928,-0.1925,-0.1956,-0.1958,-0.1944,-0.1919,-0.193,-0.192,-0.187,-0.1891,-0.1859,-0.1854,-0.1882,-0.188,-0.1887,-0.1894,-0.1969,-0.1986,-0.2,0,0,0,0,0,0,-0.1946,-0.1935,-0.1923,-0.1918,-0.1938,-0.1948,-0.1953,-0.1949,-0.1951,-0.1938,-0.1905,-0.1898,-0.193,-0.1904,-0.1868,-0.1932,-0.188,-0.1886,-0.1939,-0.1954,-0.1967,-0.1981,-0.1801,0,0,0,0,0,-0.1945,-0.1932,-0.1943,-0.194,-0.1947,-0.195,-0.1959,-0.1957,-0.1962,-0.1959,-0.1945,-0.194,-0.196,-0.1952,-0.1963,-0.1985,-0.1989,-0.2007,-0.202,-0.203,-0.2044,-0.2099,-0.2118,-0.1921,-0.1921,-0.1921,0,0,-0.1947,-0.1939,-0.1932,-0.194,-0.1945,-0.1972,-0.1949,-0.1968,-0.1998,-0.1952,-0.198,-0.1985,-0.1982,-0.2022,-0.2032,-0.1995,-0.2091,-0.2039,-0.2048,-0.2056,-0.2109,-0.2127,-0.2144,-0.1926,-0.1925,-0.1924,0,0,-0.1955,-0.1938,-0.1934,-0.1955,-0.1971,-0.1986,-0.1993,-0.2013,-0.2025,-0.2063,-0.2053,-0.2094,-0.2087,-0.2119,-0.2126,-0.2221,-0.2167,-0.2204,-0.2262,-0.2316,-0.2332,-0.2346,-0.2377,-0.2393,-0.2197,-0.2197,-0.2197,0,-0.1958,-0.1949,-0.1946,-0.1962,-0.1979,-0.1993,-0.2017,-0.205,-0.2079,-0.2108,-0.2079,-0.2153,-0.2148,-0.2226,-0.2258,-0.225,-0.225,-0.2195,-0.233,-0.2344,-0.2357,-0.2386,-0.2402,-0.2202,-0.2201,-0.2201,-0.22,0,-0.1967,-0.1971,-0.1978,-0.1993,-0.2021,-0.2046,-0.2092,-0.2132,-0.2144,-0.2179,-0.2258,-0.2281,-0.232,-0.2334,-0.2315,-0.2413,-0.2374,-0.2348,-0.2284,-0.2382,-0.2406,-0.2422,-0.2209,-0.2207,-0.2206,-0.2205,0,0,-0.1943,-0.1973,-0.1976,-0.1995,-0.2036,-0.2067,-0.2133,-0.2205,-0.226,-0.2306,-0.238,-0.2446,-0.2457,-0.2471,-0.2471,-0.2515,-0.2613,-0.246,-0.246,-0.2478,-0.2706,-0.2557,-0.2559,-0.2589,-0.2592,-0.2595,-0.2686,0,-0.1948,-0.1978,-0.1995,-0.2048,-0.2071,-0.212,-0.2188,-0.2263,-0.2317,-0.2402,-0.2465,-0.2528,-0.2508,-0.2525,-0.258,-0.2604,-0.2657,-0.259,-0.262,-0.2622,-0.2466,-0.2574,-0.2341,-0.2391,-0.2701,-0.2703,-0.2705,0,-0.1941,-0.1966,-0.2004,-0.2079,-0.2095,-0.2135,-0.2241,-0.2307,-0.2436,-0.248,-0.2564,-0.2601,-0.2702,-0.2657,-0.2768,-0.2711,-0.2725,-0.274,-0.2743,-0.2583,-0.2502,-0.2345,-0.2407,-0.221,-0.2729,-0.2727,-0.2725,0,-0.1914,-0.1974,-0.2001,-0.2024,-0.2114,-0.2151,-0.2204,-0.2323,-0.2388,-0.2525,-0.2572,-0.2696,-0.2737,-0.2802,-0.2823,-0.2797,-0.292,-0.2891,-0.2783,-0.2772,-0.2572,-0.2537,-0.2435,-0.2988,-0.2988,-0.2988,-0.2987,0,-0.1901,-0.1927,-0.1991,-0.2009,-0.2064,-0.2136,-0.2212,-0.2292,-0.2413,-0.2493,-0.2596,-0.2665,-0.2768,-0.2837,-0.2866,-0.2861,-0.2959,-0.282,-0.2797,-0.2594,-0.2561,-0.2376,-0.2419,-0.2991,-0.299,-0.299,-0.2989,0,-0.185,-0.1894,-0.1932,-0.2018,-0.2043,-0.2078,-0.2175,-0.2244,-0.2358,-0.2461,-0.25,-0.2651,-0.2734,-0.2819,-0.2921,-0.2881,-0.2827,-0.289,-0.2629,-0.2572,-0.2251,-0.2311,-0.2395,-0.2347,-0.2796,-0.2793,-0.279,0,-0.1817,-0.1829,-0.1907,-0.1927,-0.1953,-0.2016,-0.2064,-0.2191,-0.2259,-0.2438,-0.2482,-0.2604,-0.2665,-0.2753,-0.2714,-0.2739,-0.2739,-0.2527,-0.2447,-0.2214,-0.2268,-0.2361,-0.2323,-0.2231,-0.2225,-0.2219,-0.2214,0,-0.1747,-0.1773,-0.1805,-0.1846,-0.1884,-0.1935,-0.2007,-0.2057,-0.2216,-0.2301,-0.2411,-0.2474,-0.2528,-0.2429,-0.2428,-0.2419,-0.2378,-0.2408,-0.2247,-0.1895,-0.1919,-0.1861,-0.2187,-0.2164,-0.2169,-0.2173,-0.2176,-0.2178,-0.1676,-0.1675,-0.1714,-0.1744,-0.179,-0.1827,-0.1826,-0.194,-0.202,-0.2116,-0.2256,-0.2261,-0.2141,-0.2089,-0.2045,-0.1724,-0.2047,-0.1628,-0.175,-0.1884,-0.1749,-0.1949,-0.1838,-0.1841,-0.1844,-0.1846,-0.1848,0,-0.157,-0.158,-0.161,-0.1634,-0.1631,-0.1695,-0.1764,-0.1755,-0.1799,-0.1899,-0.1965,-0.1786,-0.158,-0.1437,-0.1088,-0.1001,-0.1072,-0.1034,-0.1075,-0.1092,-0.1271,-0.1137,-0.0767,-0.0767,-0.0767,-0.0767,-0.0768,-0.0768,-0.1512,-0.1487,-0.1506,-0.1457,-0.1469,-0.1411,-0.1415,-0.1443,-0.1478,-0.1424,-0.1335,-0.1324,-0.0994,-0.0726,-0.0402,-0.0448,-0.0504,-0.0612,-0.0751,-0.0757,-0.0818,-0.0877,-0.0745,-0.03,-0.0301,-0.0407,-0.0408,-0.0409]},{"header":{"parameterUnit":"m.s-1","parameterCategory":2,"la1":30.2991,"la2":30.254,"lo1":-89.0895,"lo2":-89.0444,"dy":0.0017,"dx":0.0017,"nx":28,"ny":28,"refTime":"2025-06-15T09:00:00:Z","depth":"0","parameterNumber":3,"parameterNumberName":"V-component_of_CURRENTS"},"data":[0,0,0,0,0,0,0,0,0,0,0,0,0,0,0,0,0,0,0,0,0,0,0,0,0,0,0,0,0,0,0,0,0,0,0,0,0,0,0,0,0,0,0,0,0,0,0,0,0,0,0,0,0,0,0,0,0,0,-0.0805,-0.0806,0,-0.0893,-0.0894,-0.0895,-0.0897,-0.0896,-0.0895,-0.0894,-0.0884,-0.0885,-0.0885,0,0,0,0,0,0,0,0,0,0,0,0,0,-0.0605,-0.0609,-0.0805,-0.0806,-0.0808,-0.0893,-0.0894,-0.0895,-0.0897,-0.0896,-0.0895,-0.0894,-0.0884,-0.0885,-0.0885,0,0,0,0,0,0,0,0,0,0,0,0,0,-0.0689,-0.061,-0.0804,-0.0822,-0.0825,-0.0893,-0.0894,-0.0895,-0.0897,-0.0896,-0.0895,-0.0894,-0.0884,-0.0885,-0.0885,-0.091,0,0,-0.0887,-0.0887,0,0,0,0,0,0,0,0,-0.0684,-0.0696,-0.0818,-0.0821,-0.0824,-0.0887,-0.082,-0.0897,-0.0897,-0.0865,-0.0894,-0.0893,-0.088,-0.0881,-0.0895,-0.091,-0.0909,-0.0887,-0.0887,-0.0888,-0.0888,0,0,0,0,0,0,0,-0.0678,-0.0692,-0.0835,-0.082,-0.0824,-0.0815,-0.0825,-0.0835,-0.0872,-0.0868,-0.0869,-0.0886,-0.088,-0.0894,-0.0894,-0.0909,-0.0887,-0.0888,-0.0888,-0.0888,-0.094,-0.0941,0,0,0,0,0,0,-0.068,-0.0687,-0.0833,-0.0839,-0.0755,-0.082,-0.0831,-0.0864,-0.0874,-0.0877,-0.0887,-0.0886,-0.0894,-0.0894,-0.0894,-0.0941,-0.0888,-0.0888,-0.0889,-0.0939,-0.094,-0.0941,0,0,0,0,0,0,-0.0675,-0.0693,-0.0829,-0.0766,-0.0784,-0.0825,-0.0861,-0.0867,-0.088,-0.0891,-0.089,-0.0895,-0.0893,-0.0893,-0.0914,-0.0939,-0.0889,-0.0889,-0.0938,-0.0939,-0.0941,-0.1024,0,0,0,0,0,0,-0.067,-0.0691,-0.0709,-0.0768,-0.0788,-0.0882,-0.0863,-0.0869,-0.0894,-0.0894,-0.0898,-0.0896,-0.0892,-0.0913,-0.0915,-0.0939,-0.089,-0.0936,-0.0938,-0.094,-0.102,-0.1028,-0.1035,0,0,0,0,0,-0.0662,-0.0702,-0.0709,-0.0727,-0.0814,-0.0884,-0.0894,-0.0915,-0.0896,-0.0918,-0.0917,-0.0896,-0.0925,-0.0915,-0.0916,-0.0942,-0.0936,-0.0938,-0.094,-0.1016,-0.1026,-0.1035,0,0,0,0,0,0,-0.0629,-0.0708,-0.0717,-0.0779,-0.083,-0.0886,-0.0912,-0.0917,-0.0936,-0.0928,-0.0917,-0.0918,-0.0942,-0.093,-0.0919,-0.096,-0.0924,-0.0926,-0.0981,-0.099,-0.0998,-0.1018,-0.089,0,0,0,0,0,-0.0631,-0.0676,-0.0747,-0.0794,-0.0823,-0.0862,-0.0889,-0.0907,-0.0936,-0.0943,-0.0946,-0.0945,-0.0955,-0.0962,-0.0968,-0.0998,-0.0976,-0.1011,-0.1018,-0.1025,-0.1041,-0.1021,-0.1029,-0.0949,-0.0949,-0.0949,0,0,-0.063,-0.0679,-0.0704,-0.0788,-0.0827,-0.0896,-0.0875,-0.0929,-0.0979,-0.0938,-0.099,-0.0973,-0.0967,-0.1002,-0.1011,-0.0995,-0.1038,-0.1028,-0.1034,-0.1047,-0.1024,-0.1032,-0.1039,-0.095,-0.095,-0.095,0,0,-0.0673,-0.0699,-0.0762,-0.0812,-0.0884,-0.0913,-0.0929,-0.0989,-0.1006,-0.1054,-0.1032,-0.1034,-0.1055,-0.1062,-0.1065,-0.1117,-0.1076,-0.1108,-0.1171,-0.1151,-0.1158,-0.1163,-0.1153,-0.1157,-0.1116,-0.1116,-0.1116,0,-0.067,-0.0763,-0.0788,-0.0869,-0.0916,-0.0925,-0.1005,-0.1035,-0.1088,-0.1107,-0.1079,-0.11,-0.1089,-0.113,-0.1149,-0.1136,-0.1116,-0.1138,-0.1162,-0.1167,-0.1171,-0.1159,-0.1162,-0.112,-0.112,-0.1119,-0.1119,0,-0.0771,-0.0843,-0.0884,-0.0987,-0.1035,-0.11,-0.1153,-0.1186,-0.1187,-0.1209,-0.1236,-0.1215,-0.1224,-0.1218,-0.1204,-0.1233,-0.1207,-0.117,-0.1141,-0.1184,-0.1168,-0.117,-0.1126,-0.1125,-0.1123,-0.1122,0,0,-0.0782,-0.0928,-0.0945,-0.1008,-0.11,-0.1154,-0.123,-0.1305,-0.1341,-0.1354,-0.1395,-0.1399,-0.1357,-0.1357,-0.1324,-0.1312,-0.1322,-0.1262,-0.1259,-0.1256,-0.1286,-0.1162,-0.1151,-0.1283,-0.1284,-0.1285,-0.1265,0,-0.0858,-0.1015,-0.1068,-0.12,-0.1282,-0.1313,-0.1381,-0.1435,-0.1449,-0.1484,-0.1455,-0.1467,-0.142,-0.1405,-0.1393,-0.1338,-0.133,-0.1332,-0.124,-0.1238,-0.1126,-0.115,-0.1027,-0.099,-0.1267,-0.1267,-0.1267,0,-0.0947,-0.104,-0.1184,-0.1311,-0.1348,-0.1413,-0.1497,-0.1561,-0.1602,-0.1605,-0.1604,-0.1569,-0.1568,-0.1498,-0.1447,-0.1447,-0.1383,-0.1332,-0.1329,-0.1187,-0.1117,-0.0988,-0.0982,-0.0714,-0.1269,-0.1269,-0.1269,0,-0.0946,-0.1119,-0.1227,-0.1275,-0.1416,-0.1469,-0.1528,-0.1589,-0.1636,-0.1666,-0.1673,-0.1662,-0.1635,-0.1572,-0.1473,-0.1458,-0.1397,-0.1357,-0.1194,-0.1185,-0.1049,-0.1026,-0.0775,-0.132,-0.132,-0.132,-0.132,0,-0.1007,-0.1093,-0.1232,-0.1295,-0.1398,-0.1486,-0.1576,-0.1623,-0.1684,-0.1733,-0.1718,-0.1733,-0.1646,-0.1597,-0.1509,-0.1357,-0.1424,-0.1212,-0.1169,-0.1073,-0.1054,-0.0788,-0.0733,-0.1319,-0.1319,-0.1319,-0.1319,0,-0.0988,-0.1091,-0.1209,-0.1359,-0.1404,-0.1467,-0.1598,-0.1664,-0.1709,-0.1766,-0.1773,-0.1782,-0.1725,-0.1631,-0.1524,-0.1379,-0.1118,-0.119,-0.1086,-0.1029,-0.059,-0.0548,-0.0413,-0.0297,-0.1,-0.0997,-0.0994,0,-0.0991,-0.1056,-0.1218,-0.1285,-0.1352,-0.1463,-0.1548,-0.1651,-0.1717,-0.1795,-0.1821,-0.1794,-0.1796,-0.1597,-0.1352,-0.1166,-0.1026,-0.0878,-0.0814,-0.0543,-0.0466,-0.0499,-0.0414,-0.0683,-0.0678,-0.0674,-0.0671,0,-0.097,-0.1019,-0.1111,-0.125,-0.1355,-0.1478,-0.1599,-0.1658,-0.1776,-0.1833,-0.1901,-0.1915,-0.1722,-0.1477,-0.1178,-0.1011,-0.0678,-0.0782,-0.0527,-0.0217,-0.0215,-0.0088,-0.0732,-0.0634,-0.0637,-0.064,-0.0642,-0.0644,-0.0915,-0.096,-0.1081,-0.1207,-0.1332,-0.1469,-0.1542,-0.1685,-0.1794,-0.1883,-0.1936,-0.1925,-0.153,-0.1116,-0.0902,-0.0249,-0.0428,-0.0028,-0.0012,-0.0079,0.0086,-0.047,-0.0296,-0.0297,-0.0299,-0.03,-0.0301,0,-0.0849,-0.0926,-0.1041,-0.1196,-0.1309,-0.1397,-0.1562,-0.1628,-0.1746,-0.1836,-0.1911,-0.158,-0.1121,-0.0641,0.0187,0.0527,0.0529,0.0686,0.0695,0.0736,0.0259,0.034,0.0695,0.0694,0.0694,0.0694,0.0693,0.0693,-0.0821,-0.0898,-0.0979,-0.1134,-0.1238,-0.1361,-0.1437,-0.1543,-0.1605,-0.1596,-0.1481,-0.1392,-0.0578,0.037,0.1194,0.1266,0.143,0.135,0.141,0.1155,0.1091,0.103,0.113,0.1644,0.1645,0.1914,0.1917,0.192]}],[{"header":{"parameterUnit":"m.s-1","parameterCategory":2,"la1":30.2991,"la2":30.254,"lo1":-89.0895,"lo2":-89.0444,"dy":0.0017,"dx":0.0017,"nx":28,"ny":28,"refTime":"2025-06-15T09:00:00:Z","depth":"2","parameterNumber":2,"parameterNumberName":"U-component_of_CURRENTS"},"data":[0,0,0,0,0,0,0,0,0,0,0,0,0,0,0,0,0,0,0,0,0,0,0,0,0,0,0,0,0,0,0,0,0,0,0,0,0,0,0,0,0,0,0,0,0,0,0,0,0,0,0,0,0,0,0,0,0,0,-0.1693,-0.1695,0,-0.1876,-0.1878,-0.1881,-0.2064,-0.2066,-0.2067,-0.2069,-0.2233,-0.2236,-0.2238,0,0,0,0,0,0,0,0,0,0,0,0,0,-0.1611,-0.1611,-0.1693,-0.1695,-0.1696,-0.1875,-0.1879,-0.1882,-0.2064,-0.2066,-0.2068,-0.207,-0.2232,-0.2235,-0.2239,0,0,0,0,0,0,0,0,0,0,0,0,0,-0.1712,-0.1611,-0.1693,-0.1803,-0.1814,-0.1875,-0.1879,-0.1883,-0.2063,-0.2066,-0.2068,-0.2071,-0.2231,-0.2235,-0.2239,-0.2212,0,0,-0.2252,-0.2253,0,0,0,0,0,0,0,0,-0.1706,-0.1716,-0.1785,-0.1796,-0.1808,-0.1943,-0.1909,-0.1989,-0.2062,-0.1977,-0.2069,-0.2072,-0.2127,-0.214,-0.218,-0.222,-0.2227,-0.2252,-0.2254,-0.2256,-0.2257,0,0,0,0,0,0,0,-0.1698,-0.1709,-0.1773,-0.1787,-0.18,-0.188,-0.1897,-0.1927,-0.204,-0.1984,-0.1996,-0.2004,-0.2135,-0.2175,-0.2185,-0.2229,-0.2252,-0.2256,-0.2258,-0.226,-0.2227,-0.2223,0,0,0,0,0,0,-0.1652,-0.1702,-0.1767,-0.1778,-0.1754,-0.1878,-0.1898,-0.1903,-0.2041,-0.2063,-0.2001,-0.2011,-0.2167,-0.218,-0.2191,-0.2198,-0.2256,-0.226,-0.2262,-0.223,-0.2226,-0.2222,0,0,0,0,0,0,-0.1649,-0.1656,-0.176,-0.1739,-0.1757,-0.1875,-0.1881,-0.1905,-0.1978,-0.2053,-0.2076,-0.2051,-0.217,-0.2185,-0.2242,-0.2204,-0.2262,-0.2266,-0.2234,-0.2229,-0.2224,-0.2191,0,0,0,0,0,0,-0.1646,-0.1654,-0.1657,-0.1735,-0.1756,-0.1786,-0.1878,-0.1907,-0.1973,-0.1989,-0.2101,-0.2119,-0.2173,-0.2236,-0.2246,-0.2211,-0.2269,-0.2238,-0.2232,-0.2226,-0.2196,-0.2185,-0.2176,0,0,0,0,0,-0.1643,-0.1643,-0.1656,-0.1665,-0.1751,-0.1784,-0.1802,-0.1902,-0.1972,-0.1984,-0.2078,-0.2117,-0.2201,-0.2239,-0.2251,-0.2216,-0.2241,-0.2233,-0.2226,-0.2201,-0.2187,-0.2176,0,0,0,0,0,0,-0.1631,-0.1663,-0.168,-0.1695,-0.1723,-0.1812,-0.184,-0.1904,-0.1992,-0.202,-0.2114,-0.2136,-0.2142,-0.2178,-0.2217,-0.2174,-0.2209,-0.2204,-0.2185,-0.2173,-0.2163,-0.2221,-0.2272,0,0,0,0,0,-0.1614,-0.1617,-0.1651,-0.1664,-0.167,-0.1754,-0.179,-0.1844,-0.192,-0.1967,-0.2048,-0.2102,-0.2111,-0.2151,-0.2156,-0.2177,-0.2243,-0.2141,-0.2131,-0.2123,-0.217,-0.2277,-0.2285,-0.2198,-0.2198,-0.2198,0,0,-0.1614,-0.163,-0.1636,-0.1659,-0.1698,-0.1715,-0.1786,-0.1823,-0.1857,-0.1962,-0.2047,-0.2065,-0.2097,-0.2102,-0.2107,-0.2148,-0.2157,-0.2113,-0.2107,-0.216,-0.2271,-0.2281,-0.229,-0.2192,-0.2193,-0.2194,0,0,-0.1611,-0.162,-0.1619,-0.1631,-0.1658,-0.1697,-0.1703,-0.178,-0.183,-0.1876,-0.1941,-0.1969,-0.2009,-0.2045,-0.2059,-0.1995,-0.2078,-0.1956,-0.2,-0.2101,-0.2112,-0.2123,-0.2139,-0.2152,-0.1982,-0.1982,-0.1982,0,-0.1612,-0.1616,-0.1625,-0.1626,-0.1648,-0.1685,-0.1701,-0.1735,-0.183,-0.1889,-0.1884,-0.1992,-0.198,-0.2051,-0.1998,-0.1979,-0.2042,-0.2056,-0.2099,-0.2112,-0.2124,-0.2138,-0.2153,-0.198,-0.198,-0.198,-0.1981,0,-0.1607,-0.1612,-0.1611,-0.162,-0.1638,-0.1648,-0.1676,-0.1717,-0.1766,-0.183,-0.1899,-0.1922,-0.2021,-0.1954,-0.1954,-0.2018,-0.2028,-0.2058,-0.2156,-0.2133,-0.2145,-0.2161,-0.1976,-0.1977,-0.1978,-0.1978,0,0,-0.1602,-0.1608,-0.1607,-0.1623,-0.1638,-0.166,-0.1687,-0.175,-0.185,-0.1872,-0.2003,-0.1956,-0.2034,-0.2052,-0.2065,-0.2118,-0.2161,-0.2127,-0.2133,-0.2186,-0.2358,-0.2056,-0.2045,-0.224,-0.2244,-0.2248,-0.2305,0,-0.16,-0.1604,-0.1612,-0.1637,-0.1646,-0.1684,-0.1741,-0.1803,-0.1868,-0.199,-0.2014,-0.2105,-0.2055,-0.2112,-0.2162,-0.2162,-0.2219,-0.2141,-0.2335,-0.2339,-0.2114,-0.2059,-0.1887,-0.19,-0.2322,-0.2324,-0.2326,0,-0.1588,-0.1599,-0.1614,-0.1685,-0.17,-0.1727,-0.186,-0.1917,-0.2056,-0.2127,-0.2249,-0.2291,-0.2349,-0.2305,-0.2399,-0.237,-0.2371,-0.2362,-0.2367,-0.2132,-0.2071,-0.2001,-0.1916,-0.2355,-0.2353,-0.2351,-0.2349,0,-0.1585,-0.1607,-0.1628,-0.1637,-0.1714,-0.1759,-0.1824,-0.1969,-0.2059,-0.2236,-0.2301,-0.2457,-0.2468,-0.2566,-0.2467,-0.2489,-0.2534,-0.2576,-0.2322,-0.2299,-0.221,-0.217,-0.2686,-0.2686,-0.2686,-0.2685,-0.2685,0,-0.1581,-0.16,-0.1629,-0.1641,-0.1723,-0.1783,-0.1915,-0.2025,-0.2191,-0.2272,-0.2389,-0.2425,-0.2535,-0.2534,-0.2541,-0.2416,-0.2609,-0.2321,-0.2305,-0.2169,-0.2126,-0.259,-0.2579,-0.2688,-0.2687,-0.2687,-0.2686,0,-0.1571,-0.1584,-0.161,-0.1681,-0.1714,-0.1776,-0.192,-0.2016,-0.2181,-0.2278,-0.232,-0.2405,-0.2362,-0.241,-0.2472,-0.241,-0.2394,-0.2315,-0.207,-0.2019,-0.2093,-0.2079,-0.2108,-0.2098,-0.209,-0.2083,-0.2077,0,-0.1566,-0.1573,-0.1622,-0.1634,-0.1658,-0.1752,-0.1816,-0.2001,-0.2079,-0.22,-0.2207,-0.2199,-0.2114,-0.2058,-0.1985,-0.1963,-0.2129,-0.178,-0.1765,-0.2058,-0.2042,-0.204,-0.2036,-0.1633,-0.1624,-0.1617,-0.1611,0,-0.1552,-0.1561,-0.1578,-0.1606,-0.1638,-0.1697,-0.1781,-0.1854,-0.2012,-0.2042,-0.2007,-0.1944,-0.1786,-0.1601,-0.1504,-0.1488,-0.1773,-0.1614,-0.2078,-0.1738,-0.1596,-0.1583,-0.16,-0.1545,-0.1552,-0.1556,-0.156,-0.1563,-0.153,-0.153,-0.1537,-0.1557,-0.1598,-0.1625,-0.1658,-0.1699,-0.1761,-0.177,-0.1761,-0.1575,-0.1486,-0.1186,-0.1113,-0.1065,-0.1208,-0.123,-0.1262,-0.13,-0.1167,-0.1011,-0.0823,-0.0825,-0.0828,-0.0829,-0.0831,0,-0.1474,-0.147,-0.1485,-0.1488,-0.148,-0.1548,-0.1613,-0.1597,-0.1559,-0.148,-0.1407,-0.1133,-0.0934,-0.0875,-0.0658,-0.0595,-0.0715,-0.0605,-0.0799,-0.0858,-0.0913,-0.0771,-0.0318,-0.0317,-0.0316,-0.0316,0,0,-0.1438,-0.1411,-0.1406,-0.1355,-0.1371,-0.1335,-0.1361,-0.1335,-0.1278,-0.1094,-0.0936,-0.0935,-0.082,-0.0593,-0.0515,-0.0382,-0.0647,-0.0357,-0.0757,-0.1043,-0.1099,-0.1234,-0.1072,0,0,0,0,0]},{"header":{"parameterUnit":"m.s-1","parameterCategory":2,"la1":30.2991,"la2":30.254,"lo1":-89.0895,"lo2":-89.0444,"dy":0.0017,"dx":0.0017,"nx":28,"ny":28,"refTime":"2025-06-15T09:00:00:Z","depth":"2","parameterNumber":3,"parameterNumberName":"V-component_of_CURRENTS"},"data":[0,0,0,0,0,0,0,0,0,0,0,0,0,0,0,0,0,0,0,0,0,0,0,0,0,0,0,0,0,0,0,0,0,0,0,0,0,0,0,0,0,0,0,0,0,0,0,0,0,0,0,0,0,0,0,0,0,0,-0.0022,-0.0021,0,0.0137,0.014,0.0142,0.0309,0.031,0.0312,0.0314,0.0645,0.0652,0.0659,0,0,0,0,0,0,0,0,0,0,0,0,0,-0.0093,-0.0092,-0.0022,-0.0021,-0.0019,0.0137,0.014,0.0143,0.0308,0.031,0.0312,0.0314,0.0642,0.0651,0.066,0,0,0,0,0,0,0,0,0,0,0,0,0,-0.0005,-0.0092,-0.0022,0.0077,0.0087,0.0136,0.014,0.0143,0.0308,0.031,0.0313,0.0315,0.064,0.065,0.0661,0.0677,0,0,0.0694,0.0699,0,0,0,0,0,0,0,0,-0.001,-0.0001,0.0061,0.0071,0.0082,0.02,0.0236,0.0328,0.0307,0.0231,0.0314,0.0317,0.0506,0.0528,0.0559,0.0692,0.0706,0.0695,0.0702,0.0706,0.0709,0,0,0,0,0,0,0,-0.0016,-0.0007,0.0048,0.0062,0.0075,0.0144,0.016,0.0254,0.0361,0.0238,0.0249,0.0255,0.0514,0.0548,0.0568,0.0711,0.0695,0.0704,0.0711,0.0715,0.0914,0.0913,0,0,0,0,0,0,-0.0057,-0.0013,0.0043,0.0052,0.0034,0.0143,0.016,0.0165,0.0356,0.0384,0.0253,0.0262,0.0528,0.0556,0.0581,0.0631,0.0706,0.0716,0.0723,0.0916,0.0914,0.0913,0,0,0,0,0,0,-0.0059,-0.0054,0.0036,0.0018,0.0034,0.014,0.0145,0.0166,0.0218,0.0364,0.0398,0.0282,0.0531,0.0566,0.0693,0.0645,0.0721,0.0731,0.0917,0.0915,0.0913,0.072,0,0,0,0,0,0,-0.0062,-0.0056,-0.0061,0.0015,0.0033,0.0063,0.0142,0.0168,0.0213,0.0228,0.04,0.0433,0.0536,0.0676,0.0704,0.0662,0.074,0.0919,0.0916,0.0914,0.0728,0.0712,0.0698,0,0,0,0,0,-0.0065,-0.0073,-0.0062,-0.0055,0.002,0.0061,0.0077,0.0167,0.0212,0.0225,0.0359,0.0428,0.068,0.0685,0.0718,0.0677,0.092,0.0917,0.0914,0.0735,0.0715,0.0699,0,0,0,0,0,0,-0.0095,-0.0057,-0.0041,-0.0036,-0.0,0.0087,0.0107,0.0157,0.0267,0.0295,0.0441,0.0483,0.0555,0.0654,0.0656,0.0726,0.0799,0.0802,0.0651,0.0634,0.0619,0.0622,0.0749,0,0,0,0,0,-0.0117,-0.0117,-0.0072,-0.007,-0.0057,0.0018,0.0047,0.0098,0.0196,0.0247,0.0362,0.0481,0.0562,0.0633,0.0719,0.0786,0.0871,0.0773,0.0758,0.0744,0.0768,0.0867,0.0864,0.0904,0.0904,0.0904,0,0,-0.0128,-0.011,-0.0108,-0.0078,-0.0039,-0.0022,0.0046,0.0079,0.0103,0.0266,0.0351,0.0432,0.0565,0.0624,0.0664,0.0712,0.0762,0.0741,0.0728,0.076,0.0864,0.0861,0.0857,0.0902,0.0902,0.0903,0,0,-0.0149,-0.014,-0.0143,-0.0124,-0.0089,-0.0051,-0.005,0.0026,0.0072,0.0144,0.0248,0.0323,0.0462,0.0544,0.0603,0.0565,0.0665,0.0564,0.0515,0.0609,0.0607,0.0606,0.0641,0.0645,0.0574,0.0574,0.0573,0,-0.0164,-0.0164,-0.0137,-0.0134,-0.0126,-0.0071,-0.0071,-0.0027,0.0083,0.0117,0.0152,0.0335,0.0423,0.0512,0.0482,0.0529,0.0588,0.0565,0.0589,0.059,0.0593,0.0631,0.0638,0.0564,0.0565,0.0566,0.0567,0,-0.018,-0.0183,-0.0185,-0.0171,-0.0161,-0.0155,-0.0115,-0.009,-0.0047,0.001,0.0089,0.0214,0.0335,0.0331,0.0398,0.0444,0.0475,0.0538,0.0629,0.0577,0.0619,0.063,0.055,0.0554,0.0557,0.0559,0,0,-0.0207,-0.0199,-0.0199,-0.0212,-0.0185,-0.0183,-0.0169,-0.0136,-0.0107,-0.0032,0.003,0.0113,0.0182,0.0254,0.0333,0.0404,0.0419,0.0466,0.0476,0.049,0.0588,0.0625,0.0641,0.049,0.0492,0.0494,0.0584,0,-0.0228,-0.0244,-0.0231,-0.0254,-0.0264,-0.0237,-0.0233,-0.0198,-0.0139,-0.0065,0.0033,0.0116,0.0154,0.0201,0.0275,0.0408,0.0452,0.0387,0.0649,0.0656,0.0688,0.0658,0.0554,0.063,0.0596,0.0598,0.0599,0,-0.0245,-0.026,-0.0285,-0.0312,-0.0315,-0.0321,-0.0308,-0.0293,-0.0194,-0.0144,-0.0037,0.0064,0.0174,0.0211,0.0409,0.0368,0.0452,0.0539,0.0547,0.0674,0.0717,0.0693,0.0653,0.062,0.0618,0.0616,0.0615,0,-0.0283,-0.0302,-0.0333,-0.0338,-0.0349,-0.0365,-0.0373,-0.0312,-0.0291,-0.0175,-0.0124,0.0037,0.0124,0.0277,0.0431,0.0429,0.0647,0.0682,0.0785,0.0786,0.0803,0.0803,0.0804,0.0804,0.0803,0.0803,0.0803,0,-0.0314,-0.0343,-0.0356,-0.0375,-0.0429,-0.0417,-0.0435,-0.0413,-0.0331,-0.0294,-0.016,-0.0081,0.0146,0.0299,0.0436,0.0646,0.0655,0.0781,0.083,0.0724,0.0717,0.0815,0.0815,0.0806,0.0806,0.0805,0.0805,0,-0.0354,-0.0353,-0.0401,-0.043,-0.0448,-0.0489,-0.0508,-0.05,-0.0428,-0.036,-0.033,-0.0151,0.0034,0.0251,0.0501,0.0647,0.0843,0.0898,0.0727,0.0756,0.0907,0.0896,0.1045,0.1048,0.105,0.1052,0.1053,0,-0.038,-0.0401,-0.0454,-0.0493,-0.0512,-0.0563,-0.0593,-0.0558,-0.0528,-0.041,-0.0368,-0.0188,-0.0063,0.0314,0.0595,0.0862,0.0863,0.0927,0.0925,0.0909,0.0941,0.0927,0.0913,0.083,0.083,0.0829,0.0829,0,-0.0441,-0.0448,-0.0489,-0.0562,-0.061,-0.0662,-0.0685,-0.0673,-0.0613,-0.0552,-0.0449,-0.035,-0.0004,0.0272,0.0633,0.0775,0.0891,0.0932,0.099,0.0796,0.0718,0.0745,0.0737,0.0825,0.0826,0.0826,0.0826,0.0826,-0.049,-0.0532,-0.0574,-0.0646,-0.0698,-0.0739,-0.0773,-0.0757,-0.0735,-0.0608,-0.0506,-0.0269,-0.0013,0.0541,0.0675,0.0862,0.0926,0.0968,0.0964,0.0962,0.0933,0.0865,0.099,0.0991,0.0992,0.0993,0.0994,0,-0.0561,-0.0595,-0.066,-0.0731,-0.0785,-0.08,-0.0819,-0.0819,-0.0797,-0.0604,-0.0485,-0.011,0.0177,0.0449,0.0732,0.0885,0.0828,0.0874,0.0756,0.076,0.0764,0.0719,0.0722,0.0722,0.0721,0.0721,0,0,-0.0602,-0.0671,-0.0694,-0.079,-0.0835,-0.0894,-0.0906,-0.0885,-0.0748,-0.0577,-0.0309,0.0014,0.0325,0.0491,0.058,0.065,0.0659,0.0635,0.0839,0.0684,0.0685,0.0809,0.0746,0,0,0,0,0]}],[{"header":{"parameterUnit":"m.s-1","parameterCategory":2,"la1":30.2991,"la2":30.254,"lo1":-89.0895,"lo2":-89.0444,"dy":0.0017,"dx":0.0017,"nx":28,"ny":28,"refTime":"2025-06-15T09:00:00:Z","depth":"4","parameterNumber":2,"parameterNumberName":"U-component_of_CURRENTS"},"data":[0,0,0,0,0,0,0,0,0,0,0,0,0,0,0,0,0,0,0,0,0,0,0,0,0,0,0,0,0,0,0,0,0,0,0,0,0,0,0,0,0,0,0,0,0,0,0,0,0,0,0,0,0,0,0,0,0,0,-0.123,-0.123,0,-0.1224,-0.1224,-0.1224,-0.1224,-0.1224,-0.1224,-0.1224,-0.1221,-0.1221,-0.122,0,0,0,0,0,0,0,0,0,0,0,0,0,-0.119,-0.1191,-0.123,-0.123,-0.123,-0.1224,-0.1224,-0.1224,-0.1224,-0.1224,-0.1224,-0.1224,-0.1221,-0.1221,-0.122,0,0,0,0,0,0,0,0,0,0,0,0,0,-0.1197,-0.1191,-0.123,-0.123,-0.123,-0.1224,-0.1224,-0.1224,-0.1224,-0.1224,-0.1224,-0.1224,-0.1221,-0.1221,-0.122,-0.1213,0,0,-0.1219,-0.1219,0,0,0,0,0,0,0,0,-0.1197,-0.1199,-0.123,-0.123,-0.123,-0.1226,-0.1209,-0.1221,-0.1224,-0.1225,-0.1224,-0.1224,-0.1223,-0.1223,-0.1219,-0.1212,-0.1212,-0.1219,-0.1219,-0.1219,-0.1219,0,0,0,0,0,0,0,-0.1197,-0.1199,-0.1227,-0.123,-0.123,-0.1213,-0.1215,-0.1211,-0.1222,-0.1225,-0.1225,-0.1226,-0.1223,-0.122,-0.1219,-0.1212,-0.1219,-0.1219,-0.1219,-0.1218,-0.1212,-0.1212,0,0,0,0,0,0,-0.1202,-0.1199,-0.1227,-0.1227,-0.1215,-0.1214,-0.1216,-0.1226,-0.1222,-0.1222,-0.1226,-0.1226,-0.122,-0.122,-0.1219,-0.1257,-0.1219,-0.1218,-0.1218,-0.1212,-0.1212,-0.1212,0,0,0,0,0,0,-0.1201,-0.1205,-0.1227,-0.1212,-0.1214,-0.1215,-0.1226,-0.1226,-0.1242,-0.1223,-0.1223,-0.1245,-0.122,-0.122,-0.1222,-0.1255,-0.1218,-0.1218,-0.1212,-0.1212,-0.1212,-0.1302,0,0,0,0,0,0,-0.1201,-0.1205,-0.1224,-0.1213,-0.1215,-0.1234,-0.1226,-0.1226,-0.1242,-0.1242,-0.1239,-0.1237,-0.1221,-0.1223,-0.1222,-0.1254,-0.1218,-0.1212,-0.1212,-0.1212,-0.1299,-0.1305,-0.1311,0,0,0,0,0,-0.1199,-0.1216,-0.1225,-0.1229,-0.1238,-0.1235,-0.1235,-0.1234,-0.1243,-0.125,-0.1244,-0.1239,-0.1223,-0.1223,-0.1221,-0.1254,-0.1212,-0.1212,-0.1212,-0.1296,-0.1304,-0.131,0,0,0,0,0,0,-0.1204,-0.1218,-0.1227,-0.1247,-0.1249,-0.1236,-0.1246,-0.1249,-0.125,-0.1257,-0.1241,-0.1239,-0.1255,-0.1232,-0.1233,-0.1247,-0.1216,-0.1216,-0.128,-0.1287,-0.1293,-0.1284,-0.1217,0,0,0,0,0,-0.1216,-0.1239,-0.1239,-0.1259,-0.1262,-0.1261,-0.1265,-0.1266,-0.1262,-0.1264,-0.1261,-0.1253,-0.1251,-0.1252,-0.1242,-0.1252,-0.1224,-0.1268,-0.1274,-0.1279,-0.1268,-0.1249,-0.1253,-0.1213,-0.1213,-0.1213,0,0,-0.1224,-0.1235,-0.1248,-0.1262,-0.1265,-0.1274,-0.1264,-0.1276,-0.1292,-0.1263,-0.1287,-0.1278,-0.1256,-0.1268,-0.1273,-0.1257,-0.128,-0.1279,-0.1285,-0.127,-0.125,-0.1254,-0.1258,-0.1213,-0.1213,-0.1213,0,0,-0.1236,-0.1261,-0.1278,-0.1284,-0.1296,-0.1297,-0.1307,-0.1308,-0.132,-0.1334,-0.1321,-0.1322,-0.1322,-0.131,-0.1305,-0.1331,-0.1312,-0.1338,-0.1365,-0.1348,-0.1352,-0.1354,-0.1346,-0.1347,-0.1341,-0.1341,-0.1341,0,-0.1245,-0.1269,-0.1281,-0.1293,-0.1304,-0.1313,-0.1326,-0.1339,-0.1342,-0.1351,-0.1351,-0.1349,-0.1339,-0.1347,-0.1355,-0.1348,-0.1335,-0.135,-0.1358,-0.136,-0.1361,-0.1351,-0.1351,-0.1345,-0.1345,-0.1344,-0.1344,0,-0.126,-0.1287,-0.1296,-0.1323,-0.1335,-0.1349,-0.1365,-0.1385,-0.1405,-0.1409,-0.143,-0.1412,-0.14,-0.1413,-0.1395,-0.1404,-0.1393,-0.1374,-0.1348,-0.1371,-0.1359,-0.1357,-0.1351,-0.135,-0.1348,-0.1347,0,0,-0.1254,-0.1299,-0.1305,-0.1322,-0.1354,-0.1361,-0.14,-0.1423,-0.1439,-0.1461,-0.1473,-0.1483,-0.1469,-0.1458,-0.1445,-0.1438,-0.1448,-0.1414,-0.1411,-0.1418,-0.1421,-0.1333,-0.1322,-0.1438,-0.1438,-0.1438,-0.1418,0,-0.1261,-0.1295,-0.1318,-0.1353,-0.1368,-0.1396,-0.1423,-0.1449,-0.1469,-0.1481,-0.1489,-0.1488,-0.149,-0.148,-0.148,-0.1449,-0.1444,-0.1455,-0.1384,-0.1382,-0.1311,-0.1317,-0.1437,-0.1416,-0.1416,-0.1416,-0.1415,0,-0.126,-0.1286,-0.1325,-0.1366,-0.1375,-0.14,-0.144,-0.1462,-0.1487,-0.1497,-0.1509,-0.1502,-0.1504,-0.1488,-0.1471,-0.1482,-0.1452,-0.1434,-0.1432,-0.131,-0.1289,-0.1379,-0.1412,-0.1412,-0.1412,-0.1413,-0.1413,0,-0.1238,-0.1286,-0.1323,-0.1338,-0.1386,-0.1412,-0.1436,-0.1468,-0.1471,-0.1496,-0.1483,-0.1505,-0.1486,-0.1478,-0.1455,-0.1457,-0.1429,-0.1419,-0.1317,-0.1312,-0.1361,-0.1358,-0.1389,-0.1389,-0.1389,-0.1389,-0.1389,0,-0.1224,-0.1253,-0.1318,-0.1334,-0.1363,-0.1402,-0.1422,-0.1448,-0.1458,-0.1438,-0.1478,-0.145,-0.1477,-0.1466,-0.1457,-0.1385,-0.1429,-0.1312,-0.1292,-0.1401,-0.1403,-0.1361,-0.1358,-0.1389,-0.1389,-0.1389,-0.1389,0,-0.1189,-0.1236,-0.1274,-0.1337,-0.1354,-0.1373,-0.1397,-0.139,-0.1417,-0.1387,-0.1385,-0.14,-0.1378,-0.1407,-0.1385,-0.1353,-0.1316,-0.1278,-0.1407,-0.1397,-0.1213,-0.1215,-0.1149,-0.1146,-0.1143,-0.1141,-0.1138,0,-0.1173,-0.1193,-0.1266,-0.1277,-0.1308,-0.1335,-0.1333,-0.1363,-0.1341,-0.1337,-0.1302,-0.1295,-0.1297,-0.1205,-0.126,-0.1246,-0.1227,-0.1213,-0.1196,-0.1196,-0.1185,-0.1191,-0.1197,-0.1134,-0.1133,-0.1132,-0.1131,0,-0.1134,-0.1173,-0.12,-0.1227,-0.1239,-0.1238,-0.124,-0.1205,-0.1213,-0.1249,-0.1159,-0.1134,-0.1107,-0.1115,-0.1117,-0.111,-0.123,-0.1182,-0.1187,-0.1171,-0.1176,-0.1169,-0.1178,-0.1121,-0.1123,-0.1124,-0.1124,0,-0.1098,-0.1107,-0.1144,-0.1151,-0.1167,-0.1126,-0.1138,-0.1085,-0.1061,-0.1052,-0.1024,-0.1032,-0.107,-0.1042,-0.105,-0.1037,-0.101,-0.098,-0.0995,-0.1007,-0.0975,-0.0961,-0.0811,0,0,0,0,0,-0.105,-0.1044,-0.1055,-0.1051,-0.1063,-0.1069,-0.1061,-0.1066,-0.1071,-0.0963,-0.0981,-0.0946,-0.0914,-0.0941,-0.0896,-0.1013,-0.1043,-0.096,-0.1023,-0.1065,-0.1076,-0.1054,0,0,0,0,0,0,-0.1011,-0.1029,-0.1026,-0.0962,-0.0942,-0.093,-0.0923,-0.0927,-0.0868,-0.0886,-0.0872,-0.0897,-0.0894,-0.0926,-0.0881,-0.0891,-0.0911,-0.0982,-0.0979,-0.1058,-0.1069,-0.1078,-0.1059,0,0,0,0,0]},{"header":{"parameterUnit":"m.s-1","parameterCategory":2,"la1":30.2991,"la2":30.254,"lo1":-89.0895,"lo2":-89.0444,"dy":0.0017,"dx":0.0017,"nx":28,"ny":28,"refTime":"2025-06-15T09:00:00:Z","depth":"4","parameterNumber":3,"parameterNumberName":"V-component_of_CURRENTS"},"data":[0,0,0,0,0,0,0,0,0,0,0,0,0,0,0,0,0,0,0,0,0,0,0,0,0,0,0,0,0,0,0,0,0,0,0,0,0,0,0,0,0,0,0,0,0,0,0,0,0,0,0,0,0,0,0,0,0,0,-0.0051,-0.0051,0,-0.0017,-0.0017,-0.0016,0.0012,0.0012,0.0013,0.0013,0.0063,0.0064,0.0065,0,0,0,0,0,0,0,0,0,0,0,0,0,-0.007,-0.007,-0.0051,-0.0051,-0.005,-0.0017,-0.0017,-0.0016,0.0012,0.0012,0.0013,0.0013,0.0062,0.0064,0.0065,0,0,0,0,0,0,0,0,0,0,0,0,0,-0.0052,-0.007,-0.0051,-0.0032,-0.003,-0.0017,-0.0017,-0.0016,0.0012,0.0012,0.0013,0.0013,0.0062,0.0064,0.0065,0.0065,0,0,0.007,0.0071,0,0,0,0,0,0,0,0,-0.0053,-0.0051,-0.0035,-0.0033,-0.0031,-0.0006,-0.0005,0.0012,0.0012,-0.0004,0.0013,0.0013,0.0041,0.0044,0.0049,0.0068,0.007,0.007,0.0071,0.0072,0.0072,0,0,0,0,0,0,0,-0.0054,-0.0052,-0.0038,-0.0035,-0.0032,-0.0018,-0.0015,-0.0002,0.0016,-0.0003,-0.0001,0.0003,0.0042,0.0048,0.0051,0.0071,0.007,0.0071,0.0072,0.0073,0.0123,0.0123,0,0,0,0,0,0,-0.006,-0.0054,-0.0039,-0.0037,-0.0041,-0.0018,-0.0015,-0.0015,0.0015,0.002,0.0003,0.0004,0.0045,0.0049,0.0053,0.0095,0.0072,0.0073,0.0074,0.0122,0.0123,0.0123,0,0,0,0,0,0,-0.006,-0.0059,-0.004,-0.0044,-0.0041,-0.0018,-0.0018,-0.0014,-0.0008,0.0019,0.0024,0.0004,0.0045,0.005,0.007,0.0096,0.0074,0.0075,0.0122,0.0122,0.0123,0.0155,0,0,0,0,0,0,-0.0061,-0.006,-0.0064,-0.0045,-0.0041,-0.0033,-0.0019,-0.0014,-0.0007,-0.0004,0.0022,0.0027,0.0046,0.0068,0.0072,0.0098,0.0076,0.0121,0.0122,0.0123,0.0154,0.0157,0.016,0,0,0,0,0,-0.0062,-0.007,-0.0065,-0.0063,-0.0047,-0.0033,-0.003,-0.0012,-0.0007,-0.0006,0.0016,0.0027,0.0075,0.0069,0.0074,0.0101,0.0121,0.0122,0.0123,0.0152,0.0156,0.0159,0,0,0,0,0,0,-0.008,-0.0067,-0.0061,-0.0065,-0.0051,-0.0029,-0.0027,-0.0017,0.0001,0.0004,0.0028,0.0035,0.0068,0.007,0.0062,0.0115,0.0101,0.0103,0.0122,0.0126,0.0128,0.0107,0.0078,0,0,0,0,0,-0.0088,-0.0091,-0.0072,-0.0076,-0.007,-0.0051,-0.0044,-0.0031,-0.0013,-0.0005,0.0015,0.0039,0.0074,0.0086,0.011,0.013,0.0139,0.015,0.0153,0.0155,0.014,0.0189,0.0195,0.0126,0.0126,0.0126,0,0,-0.0095,-0.0089,-0.0091,-0.008,-0.0068,-0.006,-0.0046,-0.0037,-0.0024,-0.0002,0.0018,0.005,0.0082,0.0118,0.0131,0.0122,0.018,0.0156,0.0159,0.0141,0.019,0.0197,0.0203,0.0126,0.0126,0.0126,0,0,-0.0108,-0.0108,-0.011,-0.0101,-0.0085,-0.0072,-0.0071,-0.0049,-0.0033,-0.0011,0.0022,0.0065,0.0093,0.0137,0.016,0.0186,0.0198,0.0192,0.0189,0.0238,0.0244,0.025,0.0275,0.0283,0.019,0.019,0.019,0,-0.0117,-0.012,-0.0108,-0.0105,-0.0105,-0.0079,-0.0081,-0.0056,-0.0028,-0.0018,-0.0005,0.0069,0.0108,0.0166,0.0185,0.0197,0.0209,0.0179,0.0243,0.0249,0.0254,0.0279,0.0287,0.0192,0.0192,0.0192,0.0191,0,-0.0125,-0.0129,-0.0131,-0.0121,-0.0117,-0.0116,-0.0086,-0.0074,-0.0054,-0.0027,0.0025,0.0088,0.0123,0.0163,0.0185,0.0245,0.0237,0.0248,0.0237,0.0263,0.0287,0.0295,0.0194,0.0194,0.0193,0.0193,0,0,-0.0141,-0.0138,-0.0139,-0.0152,-0.013,-0.0135,-0.0111,-0.0091,-0.0092,-0.0027,-0.0018,0.0091,0.0117,0.0144,0.0194,0.0249,0.032,0.0258,0.026,0.0286,0.0407,0.0368,0.0373,0.0342,0.0343,0.0345,0.0411,0,-0.0153,-0.0166,-0.0156,-0.0175,-0.0184,-0.0165,-0.0158,-0.0134,-0.0106,-0.0089,0.0006,0.0038,0.0114,0.0129,0.0205,0.0283,0.0339,0.0299,0.0373,0.0374,0.034,0.0381,0.0349,0.0417,0.0419,0.042,0.0421,0,-0.0162,-0.0177,-0.0196,-0.0227,-0.0231,-0.0234,-0.0247,-0.0233,-0.0188,-0.0167,-0.0101,-0.0049,0.0055,0.0101,0.0269,0.0235,0.0316,0.0385,0.039,0.0341,0.035,0.0383,0.0435,0.0434,0.0433,0.0432,0.0431,0,-0.0194,-0.0211,-0.0237,-0.0242,-0.0258,-0.0272,-0.028,-0.0257,-0.0262,-0.0219,-0.0224,-0.0098,-0.0052,0.0087,0.0247,0.025,0.0412,0.0433,0.0478,0.0475,0.0475,0.0469,0.054,0.054,0.054,0.054,0.054,0,-0.0215,-0.0242,-0.0259,-0.0276,-0.0328,-0.032,-0.0362,-0.0354,-0.0343,-0.0345,-0.0267,-0.0234,-0.0055,0.0061,0.0215,0.0369,0.0395,0.0475,0.0494,0.0487,0.0481,0.0481,0.0474,0.0542,0.0542,0.0541,0.0541,0,-0.0246,-0.0249,-0.0293,-0.0325,-0.0343,-0.0382,-0.0426,-0.0449,-0.0437,-0.0439,-0.043,-0.0335,-0.018,-0.0003,0.0211,0.0306,0.0468,0.0515,0.0477,0.0492,0.0502,0.0495,0.0559,0.0558,0.0557,0.0557,0.0556,0,-0.0266,-0.0285,-0.0339,-0.0376,-0.0394,-0.0447,-0.0482,-0.049,-0.0505,-0.0477,-0.0474,-0.0365,-0.027,0.0006,0.0182,0.0433,0.0474,0.0521,0.0533,0.0494,0.0506,0.05,0.0494,0.0555,0.0555,0.0555,0.0555,0,-0.0311,-0.0324,-0.0361,-0.0431,-0.0479,-0.0535,-0.0575,-0.0593,-0.0582,-0.0581,-0.0484,-0.0356,-0.0206,0.001,0.018,0.0374,0.0471,0.0515,0.0518,0.053,0.0491,0.0502,0.0497,0.0553,0.0553,0.0553,0.0553,0,-0.035,-0.0388,-0.0429,-0.0493,-0.0552,-0.0593,-0.0613,-0.0603,-0.0608,-0.0555,-0.0511,-0.034,-0.0238,-0.0021,0.0161,0.0315,0.0356,0.0392,0.0402,0.0406,0.0341,0.0267,0.0276,0,0,0,0,0,-0.039,-0.0432,-0.0492,-0.0554,-0.0603,-0.0636,-0.0663,-0.0666,-0.0649,-0.0575,-0.0538,-0.0374,-0.0135,-0.0036,0.0118,0.013,0.0357,0.0306,0.0399,0.0541,0.0543,0.0488,0,0,0,0,0,0,-0.0422,-0.0479,-0.0501,-0.0581,-0.0628,-0.0682,-0.0696,-0.0682,-0.0627,-0.0581,-0.0434,-0.037,-0.012,-0.0209,0.0114,0.0154,0.0223,0.0421,0.0423,0.0539,0.0542,0.0544,0.0488,0,0,0,0,0]}]]